Zurück zum Katalog

ICEYE-X33

AktivWissenschaftSSO
NORAD 60548·PAYLOAD·🇺🇸 United States

Gestartet Aug 16, 2024 von Vandenberg Space Force Base

Loading…

Nächste Überflüge (nächste 24 Stunden)

TLE

AktuellSource: Space-Track

Epoche: Sep 14, 2026, 04:02 UTC

1 60548U 24149CJ  26257.16843558  .00003334  00000-0  26490-3 0  9992
2 60548  97.7495 335.9527 0001172  53.4225 306.7107 15.01143335113557

Verfolge ICEYE-X33 in Echtzeit mit AllMySat

Download on the App Store